Weather History for Beaufort, NC

Change the Weather History Date:

Thursday, February 7, 2013

  Actual Average Record
Temperature  
Mean Temperature 52 °F -  
Max Temperature 60 °F 55 °F 70 °F (1990)
Min Temperature 45 °F 36 °F 15 °F (1978)
Degree Days  
Heating Degree Days 12    
Growing Degree Days 2 (Base 50)    
Moisture  
Dew Point 51 °F    
Average Humidity 89    
Maximum Humidity 100    
Minimum Humidity 64    
Precipitation  
Precipitation 1.75 in - - ()
Sea Level Pressure  
Sea Level Pressure 30.12 in    
Wind  
Wind Speed 10 mph (NE)    
Max Wind Speed 20 mph    
Max Gust Speed 34 mph    
Visibility 5 miles    
Events Rain    
Averages and records for this station are not official NWS values.
T = Trace of Precipitation, MM = Missing Value Source: NWS Daily Summary

Daily Weather History Graph

Daily Weather History Graph

Search for Another Location

Airport:

Trip Planner

Search our weather history database for the weather conditions in past years. The results will help you decide how hot, cold, wet, or windy it might be!

Date:

Astronomy

Feb. 07, 2013 Rise Set
Actual Time 6:59 AM EST 5:42 PM EST
Civil Twilight 6:33 AM EST 6:08 PM EST
Nautical Twilight 6:03 AM EST 6:38 PM EST
Astronomical Twilight 5:34 AM EST 7:07 PM EST
Moon 4:33 AM EST (2/7) 3:07 PM EST (2/7)
Length of Visible Light 11h 34m
Length of Day
10h 42m
Waning Crescent, 9% of the Moon is Illuminated
Feb 7
Waning Crescent
Feb 10
New
Feb 17
First Quarter
Feb 25
Full
Mar 4
Last Quarter

Hourly Weather History & Observations

Time (EST) Temp. Windchill Dew Point Humidity Pressure Visibility Wind Dir Wind Speed Gust Speed Precip Events Conditions
12:58 AM 45.0 °F 41.8 °F 42.1 °F 90% 30.27 in 9.0 mi NNE 5.8 mph - N/A   Clear
1:58 AM 45.0 °F 41.8 °F 43.0 °F 93% 30.26 in 9.0 mi NE 5.8 mph - N/A   Clear
2:58 AM 46.9 °F - 43.0 °F 86% 30.24 in 10.0 mi NE 6.9 mph - N/A   Clear
3:58 AM 46.9 °F - 43.0 °F 86% 30.25 in 10.0 mi NE 6.9 mph - N/A   Clear
4:58 AM 46.9 °F - 43.0 °F 86% 30.25 in 10.0 mi NE 6.9 mph - N/A   Clear
5:58 AM 46.9 °F - 43.0 °F 86% 30.25 in 10.0 mi NE 8.1 mph - N/A   Clear
6:58 AM 46.9 °F - 43.0 °F 86% 30.26 in 8.0 mi North - - N/A   Clear
7:58 AM 48.0 °F - 44.1 °F 86% 30.27 in 7.0 mi NE 5.8 mph - N/A   Clear
9:58 AM 55.9 °F - 46.9 °F 72% 30.27 in 10.0 mi NE 13.8 mph 20.7 mph N/A   Scattered Clouds
10:58 AM 57.9 °F - 48.0 °F 70% 30.27 in 10.0 mi NE 11.5 mph 19.6 mph N/A   Mostly Cloudy
11:58 AM 60.1 °F - 48.0 °F 64% 30.23 in 10.0 mi NE 12.7 mph 21.9 mph N/A   Overcast
12:58 PM 60.1 °F - 48.0 °F 64% 30.20 in 10.0 mi NE 11.5 mph - N/A   Overcast
1:58 PM 60.1 °F - 50.0 °F 69% 30.16 in 10.0 mi ENE 10.4 mph - N/A   Overcast
2:53 PM 55.4 °F - 51.8 °F 88% 30.16 in 2.5 mi NNE 5.8 mph - 0.03 in Rain Rain
2:58 PM 54.0 °F - 51.1 °F 90% 30.16 in 2.5 mi NNE 6.9 mph - 0.04 in Rain Rain
3:05 PM 53.6 °F - 51.8 °F 94% 30.16 in 3.0 mi NNE 5.8 mph - 0.01 in Rain Rain
3:14 PM 53.6 °F - 51.8 °F 94% 30.15 in 2.5 mi NE 5.8 mph - 0.02 in Rain Rain
3:26 PM 53.6 °F - 51.8 °F 94% 30.15 in 3.0 mi NNE 6.9 mph - 0.04 in Rain Light Rain
3:42 PM 53.6 °F - 51.8 °F 94% 30.14 in 3.0 mi NE 5.8 mph - 0.05 in Rain Light Rain
3:58 PM 54.0 °F - 53.1 °F 97% 30.14 in 2.5 mi NE 5.8 mph - 0.06 in Rain Rain
4:58 PM 55.9 °F - 54.0 °F 93% 30.12 in 2.5 mi ENE 12.7 mph 19.6 mph 0.11 in Rain Rain
5:32 PM 55.4 °F - 53.6 °F 94% 30.10 in 3.0 mi ENE 13.8 mph 19.6 mph 0.05 in Rain Rain
5:58 PM 55.0 °F - 54.0 °F 96% 30.10 in 4.0 mi NE 11.5 mph 20.7 mph 0.09 in Rain Rain
6:23 PM 55.4 °F - 53.6 °F 94% 30.09 in 5.0 mi ENE 13.8 mph 21.9 mph 0.04 in Rain Rain
6:47 PM 55.4 °F - 53.6 °F 94% 30.08 in 4.0 mi ENE 12.7 mph 20.7 mph 0.09 in Rain Rain
6:58 PM 55.9 °F - 54.0 °F 93% 30.08 in 4.0 mi ENE 13.8 mph 20.7 mph 0.12 in Rain Heavy Rain
7:58 PM 55.9 °F - 54.0 °F 93% 30.04 in 4.0 mi ENE 16.1 mph 27.6 mph 0.15 in Rain Rain
8:10 PM 55.4 °F - 53.6 °F 94% 30.03 in 4.0 mi ENE 19.6 mph 31.1 mph 0.02 in Rain Rain
8:31 PM 55.4 °F - 53.6 °F 94% 30.02 in 3.0 mi ENE 16.1 mph 29.9 mph 0.09 in Rain Heavy Rain
8:58 PM 55.9 °F - 53.1 °F 90% 30.01 in 3.0 mi ENE 12.7 mph 32.2 mph 0.23 in Rain Heavy Rain
9:00 PM 55.4 °F - 53.6 °F 94% 30.01 in 2.5 mi ENE 15.0 mph 27.6 mph 0.01 in Rain Heavy Rain
9:09 PM 55.4 °F - 53.6 °F 94% 30.00 in 3.0 mi ENE 13.8 mph 34.5 mph 0.06 in Rain Heavy Rain
9:39 PM 55.4 °F - 53.6 °F 94% 29.99 in 2.5 mi ENE 16.1 mph 27.6 mph 0.26 in Rain Heavy Rain
9:44 PM 55.4 °F - 53.6 °F 94% 29.98 in 2.0 mi NE 15.0 mph 26.5 mph 0.33 in Rain Heavy Rain
9:58 PM 55.9 °F - 54.0 °F 93% 29.98 in 3.0 mi ENE 15.0 mph 28.8 mph 0.42 in Rain Heavy Rain
10:09 PM 57.2 °F - 55.4 °F 94% 29.97 in 2.5 mi ENE 19.6 mph 26.5 mph 0.08 in Rain Heavy Rain
10:58 PM 57.0 °F - 55.0 °F 93% 29.92 in 1.8 mi ENE 15.0 mph 31.1 mph 0.53 in Rain Heavy Rain
11:14 PM 55.4 °F - 55.4 °F 100% 29.89 in 2.0 mi ENE 19.6 mph 34.5 mph 0.17 in Rain Heavy Rain